[[{"header":{"parameterUnit":"m.s-1","parameterCategory":1,"la1":30.2991,"la2":30.254,"lo1":-89.0895,"lo2":-89.0444,"dy":0.0017,"dx":0.0017,"nx":28,"ny":28,"refTime":"2026-01-30T03:00:00:Z","depth":0,"parameterNumber":2,"parameterNumberName":"U-component_of_WINDS"},"data":[0,0,0,0,0,0,0,0,0,0,0,0,0,0,0,0,0,0,0,0,0,0,0,0,0,0,0,0,0,0,0,0,0,0,0,0,0,0,0,0,0,0,0,0,0,0,0,0,0,0,0,0,0,0,0,0,0,0,1.6139,1.6139,0,1.6136,1.6136,1.6136,1.6179,1.6181,1.6182,1.6183,1.6174,1.6173,1.6172,0,0,0,0,0,0,0,0,0,0,0,0,0,1.6179,1.6178,1.6139,1.6139,1.6139,1.6136,1.6136,1.6136,1.6179,1.6181,1.6182,1.6183,1.6175,1.6173,1.6171,0,0,0,0,0,0,0,0,0,0,0,0,0,1.6167,1.6177,1.6139,1.6161,1.6162,1.6136,1.6136,1.6136,1.6179,1.6181,1.6182,1.6184,1.6175,1.6173,1.6171,1.6123,0,0,1.6165,1.6164,0,0,0,0,0,0,0,0,1.6168,1.6166,1.6157,1.6159,1.6161,1.616,1.6147,1.6131,1.6178,1.6172,1.6183,1.6185,1.6168,1.6166,1.6162,1.6123,1.6122,1.6165,1.6164,1.6163,1.6162,0,0,0,0,0,0,0,1.6168,1.6166,1.6138,1.6157,1.6159,1.6169,1.6169,1.6144,1.616,1.6173,1.6176,1.6176,1.6169,1.6164,1.6162,1.6122,1.6165,1.6163,1.6162,1.6161,1.6044,1.6042,0,0,0,0,0,0,1.6167,1.6166,1.6138,1.6138,1.6169,1.6167,1.6167,1.6159,1.616,1.6162,1.6174,1.6178,1.6166,1.6164,1.6162,1.6106,1.6163,1.6161,1.616,1.6046,1.6044,1.6042,0,0,0,0,0,0,1.6168,1.6164,1.6138,1.6153,1.6151,1.6164,1.6154,1.6158,1.6152,1.6161,1.6164,1.6166,1.6167,1.6165,1.6133,1.6106,1.616,1.6158,1.6048,1.6045,1.6043,1.5993,0,0,0,0,0,0,1.6169,1.6164,1.6147,1.6152,1.615,1.611,1.6153,1.6156,1.6149,1.6154,1.6154,1.6156,1.6169,1.6136,1.6131,1.6104,1.6157,1.6051,1.6047,1.6043,1.5997,1.5988,1.5981,0,0,0,0,0,1.617,1.6131,1.6145,1.6142,1.6128,1.6109,1.6107,1.6124,1.6147,1.6129,1.6135,1.6156,1.611,1.6132,1.6127,1.6099,1.6052,1.6048,1.6044,1.6,1.599,1.5981,0,0,0,0,0,0,1.6119,1.6132,1.6148,1.6111,1.6109,1.6116,1.6094,1.6113,1.6102,1.6107,1.6127,1.6127,1.6092,1.6093,1.6117,1.6053,1.6085,1.6079,1.6053,1.6044,1.6036,1.6036,1.6155,0,0,0,0,0,1.6104,1.6089,1.6101,1.6066,1.6065,1.6079,1.6071,1.6085,1.6083,1.6082,1.6085,1.6081,1.6066,1.6055,1.6042,1.5998,1.5998,1.5976,1.5968,1.5962,1.5956,1.5934,1.5924,1.6027,1.6027,1.6028,0,0,1.6072,1.6077,1.6066,1.6056,1.6056,1.6038,1.6078,1.6057,1.6044,1.6078,1.6049,1.6051,1.6048,1.601,1.5994,1.601,1.5928,1.5957,1.5952,1.5949,1.5928,1.5918,1.5909,1.6025,1.6025,1.6026,0,0,1.6004,1.6007,1.5979,1.5979,1.5979,1.599,1.5983,1.5989,1.5992,1.5964,1.5989,1.5973,1.5947,1.5944,1.5938,1.5872,1.589,1.5867,1.5826,1.5803,1.5795,1.5788,1.5763,1.5755,1.5862,1.5862,1.5861,0,1.5963,1.5939,1.5961,1.594,1.5935,1.5968,1.5939,1.5937,1.5932,1.5927,1.5946,1.5914,1.5914,1.5876,1.5861,1.5856,1.5848,1.5866,1.5795,1.5788,1.5781,1.5758,1.5749,1.5859,1.5859,1.5859,1.586,0,1.5889,1.5872,1.5849,1.5846,1.5838,1.5813,1.5831,1.582,1.5835,1.5843,1.5814,1.5816,1.5804,1.5796,1.5809,1.576,1.577,1.5792,1.5824,1.5768,1.5747,1.5738,1.5854,1.5856,1.5856,1.5857,0,0,1.5786,1.5798,1.5789,1.5789,1.5793,1.5779,1.5756,1.5746,1.5736,1.5732,1.5712,1.5691,1.5711,1.5705,1.5719,1.5699,1.5646,1.5723,1.5724,1.5708,1.5592,1.5574,1.5564,1.566,1.5658,1.5657,1.5592,0,1.5719,1.5681,1.5702,1.566,1.5644,1.5676,1.5656,1.5656,1.5663,1.565,1.5658,1.5642,1.5671,1.5668,1.565,1.5657,1.5623,1.5662,1.564,1.5639,1.5638,1.5553,1.5534,1.5472,1.5584,1.5582,1.5581,0,1.5636,1.5631,1.5588,1.5597,1.5591,1.5572,1.5566,1.5553,1.5554,1.5561,1.5556,1.5575,1.5551,1.5585,1.5553,1.5579,1.5571,1.5573,1.5571,1.5568,1.5605,1.5546,1.5453,1.5443,1.5568,1.5569,1.557,0,1.5564,1.5547,1.552,1.5518,1.5528,1.5514,1.5517,1.5519,1.5513,1.5507,1.5502,1.5493,1.5487,1.5479,1.5495,1.5518,1.546,1.5495,1.5464,1.5463,1.5448,1.5448,1.5351,1.5446,1.5446,1.5446,1.5446,0,1.5486,1.5459,1.5488,1.547,1.5441,1.5465,1.5434,1.544,1.5443,1.5427,1.5454,1.5438,1.546,1.5446,1.5459,1.543,1.5427,1.5431,1.5434,1.5428,1.5427,1.5422,1.5426,1.5444,1.5444,1.5445,1.5445,0,1.54,1.5419,1.5391,1.5403,1.5406,1.5383,1.5393,1.5377,1.5388,1.5368,1.5364,1.538,1.5365,1.5381,1.5367,1.5375,1.5336,1.5346,1.5336,1.5338,1.5306,1.5308,1.52,1.5187,1.5291,1.529,1.529,0,1.5349,1.5329,1.534,1.5332,1.5334,1.5321,1.5315,1.5339,1.5331,1.5332,1.5315,1.5304,1.5295,1.527,1.5279,1.5269,1.5278,1.5241,1.5276,1.5271,1.5276,1.5276,1.5274,1.5233,1.5232,1.5231,1.523,0,1.5255,1.5266,1.5257,1.5252,1.5245,1.5241,1.524,1.5232,1.5256,1.5246,1.5233,1.5226,1.5214,1.5201,1.5194,1.5195,1.5216,1.5219,1.5211,1.5203,1.5198,1.52,1.5315,1.5221,1.5222,1.5222,1.5223,1.5223,1.5183,1.5167,1.5173,1.5163,1.5165,1.5164,1.515,1.5161,1.515,1.5143,1.5157,1.514,1.5142,1.5135,1.5135,1.5121,1.5136,1.5125,1.5122,1.5118,1.5113,1.5202,1.512,1.512,1.512,1.512,1.5121,0,1.509,1.5097,1.5087,1.5086,1.5078,1.5101,1.5101,1.5092,1.5077,1.5079,1.5071,1.5056,1.5044,1.5054,1.5045,1.5032,1.5041,1.5028,1.5028,1.5028,1.51,1.5107,1.5021,1.5021,1.5021,1.5021,1.5021,1.5021,1.5041,1.5015,1.5027,1.5002,1.5009,1.4994,1.4992,1.499,1.4992,1.4974,1.4966,1.4973,1.4978,1.497,1.496,1.4963,1.4958,1.4941,1.4948,1.5014,1.5023,1.5033,1.504,1.494,1.494,1.4877,1.4877,1.4876]},{"header":{"parameterUnit":"m.s-1","parameterCategory":1,"la1":30.2991,"la2":30.254,"lo1":-89.0895,"lo2":-89.0444,"dy":0.0017,"dx":0.0017,"nx":28,"ny":28,"refTime":"2026-01-30T03:00:00:Z","depth":0,"parameterNumber":3,"parameterNumberName":"V-component_of_WINDS"},"data":[0,0,0,0,0,0,0,0,0,0,0,0,0,0,0,0,0,0,0,0,0,0,0,0,0,0,0,0,0,0,0,0,0,0,0,0,0,0,0,0,0,0,0,0,0,0,0,0,0,0,0,0,0,0,0,0,0,0,-3.1359,-3.1359,0,-3.1289,-3.1288,-3.1287,-3.1248,-3.1248,-3.1248,-3.1248,-3.117,-3.1168,-3.1166,0,0,0,0,0,0,0,0,0,0,0,0,0,-3.1456,-3.1454,-3.1359,-3.1358,-3.1358,-3.1289,-3.1288,-3.1287,-3.1248,-3.1248,-3.1248,-3.1248,-3.117,-3.1168,-3.1166,0,0,0,0,0,0,0,0,0,0,0,0,0,-3.1402,-3.1454,-3.1359,-3.133,-3.1327,-3.1289,-3.1288,-3.1287,-3.1248,-3.1248,-3.1248,-3.1248,-3.1171,-3.1168,-3.1165,-3.1149,0,0,-3.1156,-3.1155,0,0,0,0,0,0,0,0,-3.1405,-3.1399,-3.1335,-3.1332,-3.1328,-3.1277,-3.1293,-3.1241,-3.1248,-3.1278,-3.1248,-3.1248,-3.1205,-3.1199,-3.1186,-3.1146,-3.1142,-3.1156,-3.1154,-3.1153,-3.1152,0,0,0,0,0,0,0,-3.1409,-3.1402,-3.1331,-3.1334,-3.133,-3.1319,-3.1311,-3.1283,-3.1243,-3.1275,-3.1272,-3.1265,-3.1203,-3.1189,-3.1184,-3.1141,-3.1156,-3.1153,-3.1151,-3.115,-3.1087,-3.1087,0,0,0,0,0,0,-3.1418,-3.1405,-3.1333,-3.1329,-3.1368,-3.1318,-3.1309,-3.1294,-3.1243,-3.1236,-3.1265,-3.1263,-3.1194,-3.1188,-3.1181,-3.1161,-3.1153,-3.115,-3.1148,-3.1087,-3.1087,-3.1087,0,0,0,0,0,0,-3.1421,-3.1412,-3.1336,-3.1366,-3.1356,-3.1316,-3.1299,-3.1292,-3.1279,-3.1236,-3.1228,-3.1259,-3.1194,-3.1185,-3.1159,-3.1158,-3.1149,-3.1146,-3.1087,-3.1087,-3.1087,-3.112,0,0,0,0,0,0,-3.1424,-3.1413,-3.1408,-3.1367,-3.1354,-3.1316,-3.1299,-3.1291,-3.1274,-3.1271,-3.1227,-3.122,-3.1193,-3.1163,-3.1156,-3.1154,-3.1143,-3.1087,-3.1087,-3.1087,-3.1119,-3.1122,-3.1124,0,0,0,0,0,-3.1427,-3.1418,-3.1408,-3.1399,-3.1347,-3.1316,-3.1309,-3.1281,-3.1274,-3.1268,-3.1241,-3.1221,-3.116,-3.1161,-3.1152,-3.1149,-3.1086,-3.1087,-3.1087,-3.1118,-3.1121,-3.1124,0,0,0,0,0,0,-3.1457,-3.1412,-3.14,-3.1378,-3.1352,-3.131,-3.1301,-3.1284,-3.1258,-3.1256,-3.122,-3.121,-3.1187,-3.1165,-3.1168,-3.1132,-3.1121,-3.1119,-3.1148,-3.115,-3.1153,-3.1158,-3.1141,0,0,0,0,0,-3.1462,-3.1442,-3.1403,-3.1387,-3.1375,-3.1341,-3.1326,-3.1307,-3.1277,-3.1265,-3.1236,-3.1207,-3.1181,-3.1164,-3.1138,-3.1116,-3.1106,-3.111,-3.1112,-3.1114,-3.1113,-3.1102,-3.1104,-3.1088,-3.1088,-3.1088,0,0,-3.1469,-3.1443,-3.1432,-3.1392,-3.137,-3.135,-3.1331,-3.131,-3.1294,-3.1261,-3.1235,-3.1213,-3.1178,-3.1155,-3.1142,-3.1135,-3.1116,-3.1115,-3.1117,-3.1114,-3.1103,-3.1104,-3.1106,-3.1088,-3.1088,-3.1088,0,0,-3.1474,-3.1452,-3.1437,-3.1416,-3.1383,-3.1361,-3.1358,-3.1319,-3.1304,-3.1278,-3.1254,-3.1234,-3.119,-3.1167,-3.1149,-3.1149,-3.113,-3.1141,-3.1153,-3.1143,-3.1144,-3.1145,-3.1146,-3.1147,-3.114,-3.114,-3.1141,0,-3.1488,-3.1458,-3.1431,-3.1412,-3.1396,-3.1369,-3.1353,-3.1333,-3.1293,-3.1282,-3.1275,-3.1222,-3.1195,-3.1167,-3.1168,-3.1154,-3.1149,-3.1146,-3.1147,-3.1147,-3.1148,-3.1149,-3.1149,-3.1142,-3.1142,-3.1142,-3.1142,0,-3.1477,-3.1457,-3.1449,-3.1414,-3.1397,-3.138,-3.1349,-3.1335,-3.1318,-3.1296,-3.1271,-3.124,-3.1208,-3.12,-3.1181,-3.117,-3.1167,-3.1154,-3.1141,-3.1151,-3.1152,-3.1152,-3.1144,-3.1144,-3.1143,-3.1143,0,0,-3.1496,-3.145,-3.1447,-3.1432,-3.1396,-3.1379,-3.1361,-3.1333,-3.1322,-3.1295,-3.128,-3.1245,-3.1234,-3.1214,-3.1193,-3.1184,-3.1188,-3.1172,-3.1171,-3.1178,-3.1175,-3.1186,-3.1187,-3.1176,-3.1176,-3.1176,-3.1179,0,-3.1496,-3.1465,-3.1442,-3.1419,-3.1401,-3.1376,-3.1361,-3.1337,-3.1317,-3.1297,-3.1274,-3.1251,-3.1237,-3.1226,-3.1216,-3.119,-3.1188,-3.1189,-3.1161,-3.116,-3.1171,-3.1187,-3.1197,-3.1201,-3.1179,-3.1179,-3.1179,0,-3.1491,-3.147,-3.1446,-3.1415,-3.1406,-3.1393,-3.1367,-3.1349,-3.1321,-3.1307,-3.1288,-3.1267,-3.1247,-3.1237,-3.1209,-3.1211,-3.1198,-3.1185,-3.1184,-3.118,-3.117,-3.1184,-3.1201,-3.1202,-3.1178,-3.1178,-3.1178,0,-3.1509,-3.1474,-3.1456,-3.1444,-3.1406,-3.1398,-3.1381,-3.1354,-3.1339,-3.1316,-3.1306,-3.1279,-3.1265,-3.1245,-3.1218,-3.1213,-3.1193,-3.1181,-3.1181,-3.1182,-3.1177,-3.1178,-3.1194,-3.1168,-3.1168,-3.1168,-3.1168,0,-3.1512,-3.1498,-3.1464,-3.1453,-3.1438,-3.1412,-3.1397,-3.1378,-3.1355,-3.1339,-3.1315,-3.1301,-3.1266,-3.1247,-3.1226,-3.1207,-3.12,-3.1188,-3.1183,-3.1191,-3.1193,-3.1182,-3.1181,-3.1169,-3.1168,-3.1168,-3.1168,0,-3.1528,-3.1505,-3.1484,-3.1452,-3.1444,-3.1434,-3.1406,-3.1394,-3.1374,-3.1355,-3.1349,-3.1317,-3.1294,-3.1266,-3.1233,-3.1219,-3.1203,-3.1194,-3.1213,-3.121,-3.1212,-3.1213,-3.1222,-3.1222,-3.1196,-3.1197,-3.1197,0,-3.1532,-3.1522,-3.149,-3.1479,-3.1464,-3.1447,-3.1433,-3.1407,-3.1393,-3.1363,-3.1355,-3.1332,-3.1311,-3.1276,-3.1249,-3.1225,-3.1216,-3.1221,-3.1211,-3.1221,-3.1217,-3.1218,-3.1218,-3.1223,-3.1223,-3.1223,-3.1224,0,-3.154,-3.153,-3.1512,-3.1491,-3.1477,-3.1458,-3.1438,-3.143,-3.14,-3.1386,-3.1364,-3.1349,-3.1318,-3.1295,-3.1268,-3.1249,-3.1232,-3.1227,-3.1226,-3.1234,-3.1247,-3.1241,-3.122,-3.1227,-3.1226,-3.1226,-3.1226,-3.1226,-3.155,-3.1542,-3.1519,-3.1501,-3.1484,-3.1467,-3.1456,-3.1436,-3.1418,-3.1393,-3.1378,-3.1357,-3.1332,-3.1294,-3.1277,-3.126,-3.1253,-3.1252,-3.1251,-3.1251,-3.1255,-3.125,-3.1255,-3.1255,-3.1255,-3.1255,-3.1255,0,-3.1559,-3.1544,-3.1528,-3.1503,-3.1489,-3.1477,-3.1455,-3.1444,-3.1427,-3.1406,-3.1388,-3.1364,-3.1343,-3.1316,-3.1292,-3.1284,-3.1276,-3.1279,-3.1279,-3.1276,-3.1261,-3.1265,-3.1286,-3.1286,-3.1286,-3.1286,-3.1286,-3.1286,-3.1561,-3.1547,-3.1534,-3.1512,-3.1496,-3.1478,-3.1467,-3.1452,-3.1435,-3.1411,-3.1394,-3.1378,-3.1355,-3.133,-3.1311,-3.1303,-3.1296,-3.1302,-3.1292,-3.1279,-3.1276,-3.1274,-3.1277,-3.1301,-3.1301,-3.1308,-3.1308,-3.1308]}]]